Location: Burgberg
(50.1428°N, 11.0671°E)
Time: 07:04:14
(UTC+00:00)

COSMOS 2455 - Pass Details

Date: 26 January 2020
Orbit: 902 x 907 km, 67.1° (Epoch: 25 February)

Event Time Altitude Azimuth Distance (km) Brightness Sun altitude
Exits shadow 03:22:50 48° 104° (ESE) 1,165 3.6 -34.3°
Drops below altitude 10° 03:28:13 10° 44° (NE) 2,598 5.8 -33.4°
Sets 03:30:48 0° 39° (NE) 3,544 6.6 -33.0°
